Terug naar catalogus

STARLINK-36845

ActiefCommunicatieVLEO
NORAD 68056·PAYLOAD·🇺🇸 United States

Gelanceerd Mar 2, 2026 vanaf Vandenberg Space Force Base

Loading…

Volgende Passages (komende 24 uur)

TLE

VersSource: CelesTrak SupGP

Epoch: Sep 14, 2026, 22:40 UTC

1 68056C 26041S   26257.94493056  .00036253  00000+0  10710-2 0  2576
2 68056  53.1572 245.8605 0001371  96.7771 263.1976 15.34375570    14

Volg STARLINK-36845 in realtime met AllMySat

Download on the App Store